Location: Monfort
(47.1967°N, 0.2115°W)
Time: 11:41:51
(UTC+00:00)

Cosmos 1892 - Pass Details

Date: 24 October 2020
Orbit: 504 x 523 km, 82.5° (Epoch: 28 November)

Event Time Altitude Azimuth Distance (km) Brightness Sun altitude
Rises 18:11:21 0° 359° (N) 2,663 6.3 -13.3°
Reaches altitude 10° 18:13:40 10° 9° (N) 1,771 5.3 -13.7°
Maximum altitude 18:17:12 32° 74° (ENE) 913 3.4 -14.3°
Enters shadow 18:19:07 21° 123° (ESE) 1,232 4.1 -14.6°
